Location: Sauerland
(51.1981°N, 7.8053°E)
Time: 15:58:14
(UTC+01:00)

ISS - Pass Details

Date: 17 February 2026
Orbit: 416 x 427 km, 51.6° (Epoch: 5 March)

Event Time Altitude Azimuth Distance (km) Brightness Sun altitude
Exits shadow 05:39:02 25° 183° (S) 881 -2.2 -19.3°
Maximum altitude 05:40:02 30° 149° (SSE) 770 -2.2 -19.1°
Drops below altitude 10° 05:43:02 10° 86° (E) 1,494 0.3 -18.7°
Sets 05:45:16 0° 76° (ENE) 2,359 1.6 -18.3°
